Satellite: NOAA-19
Catalog number: 33591
Epoch time:      12034.30188475
Element set:     248
Inclination:      098.8520 deg
RA of node:       335.8525 deg
Eccentricity:    0.0014757
Arg of perigee:   044.7515 deg
Mean anomaly:     315.4846 deg
Mean motion:   14.11290002 rev/day
Decay rate:       3.11e-06 rev/day^2
Epoch rev:           15398
Checksum:              296

/EX
SB KEPS @ AMSAT  $ORB12034.M
Orbital Elements  12034.MISC

HR AMSAT ORBITAL ELEMENTS FOR MANNED AND MISCELLANEOUS SATELLITES
FROM WA5QGD FORT WORTH,TX February 3, 2012
Send SUBSCRIBE KEPS/UNSUBSCRIBE KEPS to majordomo@amsat.org only
BID: ORB12034.M
TO ALL RADIO AMATEURS BT

Satellite: HUBBLE
Catalog number: 20580
Epoch time:      12033.80363283
Element set:     936
Inclination:      028.4724 deg
RA of node:       309.2623 deg
Eccentricity:    0.0003558
Arg of perigee:   058.6018 deg
Mean anomaly:     301.4443 deg
Mean motion:   15.02156561 rev/day
Decay rate:      1.564e-05 rev/day^2
Epoch rev:           99435
Checksum:              281

Satellite: ISS
Catalog number: 25544
Epoch time:      12034.86863426
Element set:     942
Inclination:      051.6423 deg
RA of node:       075.8121 deg
Eccentricity:    0.0020339
Arg of perigee:   002.5479 deg
Mean anomaly:     345.5829 deg
Mean motion:   15.58658818 rev/day
Decay rate:     -1.965e-05 rev/day^2
Epoch rev:           75706
Checksum:              323

Satellite: CO-58
Catalog number: 28895
Epoch time:      12033.64256716
Element set:    0090
Inclination:      097.9355 deg
RA of node:       265.7268 deg
Eccentricity:    0.0016932
Arg of perigee:   214.5420 deg
Mean anomaly:     145.4665 deg
Mean motion:   14.60468303 rev/day
Decay rate:       3.61e-06 rev/day^2
Epoch rev:           33387
Checksum:              323

Satellite: FALCON
Catalog number: 30776
Epoch time:      12033.97544816
Element set:    0286
Inclination:      035.4337 deg
RA of node:       022.0578 deg
Eccentricity:    0.0003418
Arg of perigee:   277.9002 deg
Mean anomaly:     082.1323 deg
Mean motion:   15.06535208 rev/day
Decay rate:      3.517e-05 rev/day^2
Epoch rev:           26984
Checksum:              291

Satellite: MAST
Catalog number: 31126
Epoch time:      12033.93787976
Element set:    0380
Inclination:      097.8810 deg
RA of node:       052.9291 deg
Eccentricity:    0.0094274
Arg of perigee:   171.6016 deg
Mean anomaly:     188.6795 deg
Mean motion:   14.54023074 rev/day
Decay rate:       3.20e-06 rev/day^2
Epoch rev:           25461
Checksum:              304

Satellite: CAPE1
Catalog number: 31130
Epoch time:      12033.92706829
Element set:    0388
Inclination:      097.8890 deg
RA of node:       049.3986 deg
Eccentricity:    0.0101811
Arg of perigee:   183.8149 deg
Mean anomaly:     176.2288 deg
Mean motion:   14.52755723 rev/day
Decay rate:       3.89e-06 rev/day^2
Epoch rev:           25413
Checksum:              325

Satellite: COMPASS
Catalog number: 32787
Epoch time:      12033.65189263
Element set:    0214
Inclination:      097.8195 deg
RA of node:       097.9271 deg
Eccentricity:    0.0016162
Arg of perigee:   141.2021 deg
Mean anomaly:     219.0352 deg
Mean motion:   14.83468310 rev/day
Decay rate:      1.184e-05 rev/day^2
Epoch rev:           20371
Checksum:              279

Satellite: AAUSAT2
Catalog number: 32788
Epoch time:      12033.91859911
Element set:    0207
Inclination:      097.8205 deg
RA of node:       098.5001 deg
Eccentricity:    0.0016219
Arg of perigee:   140.2606 deg
Mean anomaly:     219.9785 deg
Mean motion:   14.83744502 rev/day
Decay rate:      1.254e-05 rev/day^2
Epoch rev:           20377
Checksum:              301

Satellite: DO-64
Catalog number: 32789
Epoch time:      12033.88248916
Element set:    0221
Inclination:      097.8302 deg
RA of node:       100.0206 deg
Eccentricity:    0.0015902
Arg of perigee:   138.7683 deg
Mean anomaly:     221.4734 deg
Mean motion:   14.84872170 rev/day
Decay rate:      3.025e-05 rev/day^2
Epoch rev:           20379
Checksum:              295

Satellite: CO-66
Catalog number: 32791
Epoch time:      12034.80716732
Element set:     207
Inclination:      097.8205 deg
RA of node:       098.8971 deg
Eccentricity:    0.0016484
Arg of perigee:   136.4443 deg
Mean anomaly:     223.8070 deg
Mean motion:   14.82984967 rev/day
Decay rate:      1.355e-05 rev/day^2
Epoch rev:           20382
Checksum:              326

Satellite: RS-30
Catalog number: 32953
Epoch time:      12034.87439243
Element set:     489
Inclination:      082.5017 deg
RA of node:       018.6546 deg
Eccentricity:    0.0017457
Arg of perigee:   240.2754 deg
Mean anomaly:     119.6590 deg
Mean motion:   12.43020594 rev/day
Decay rate:        1.0e-07 rev/day^2
Epoch rev:           16787
Checksum:              299

Satellite: TACSAT-3
Catalog number: 35001
Epoch time:      12033.80813342
Element set:    0860
Inclination:      040.4468 deg
RA of node:       195.8471 deg
Eccentricity:    0.0005692
Arg of perigee:   013.5828 deg
Mean anomaly:     346.5199 deg
Mean motion:   15.71534632 rev/day
Decay rate:     7.6743e-04 rev/day^2
Epoch rev:           15303
Checksum:              295

